STARLINK-1400, 45700

Orbit data source: Space-Track

STARLINK-1400, 45700 is a payload satellite owned by SpaceX/Seattle (US) in LEO that was launched on Thu, 04 Jun 2020 UTC via an FALCON 9 launch vehicle from the Air Force Eastern Test Range (AFETR). Payloads include a variety of satellites, spacecraft, and rockets equipped with specific instruments for various scientific and technological missions. These include communications satellites like Starlink; space stations such as the ISS; scientific satellites like the Hubble; Earth observation satellites from companies like Planet Labs, Umbra, and HawkEye 360; GPS; miniature CubeSats for education and research; and military/defense satellites.

Loading next visibility...
STARLINK-1400 details
Identifier
45700, 2020-035AV
Orbit
LEO
Last TLE update16 hours ago
Origin
Flag of USSpaceX/Seattle (US)
ManufacturerSpaceX/Seattle
MissionOperational Commercial Communications
Bus & MotorSTARLINK, Unknown motor
Mass260 kg wet, ~248 kg dry
Launch date (UTC)
2020-06-04 (5 years ago)
Launch vehicle
FALCON 9
Launch site
Air Force Eastern Test Range (AFETR)
Object type
Payload
Rocket body
Debris
Shape & HBRBox + 1 Pan, 8.86 m
Radar Cross Section13.562 m², Large (>1 m²)

Expand to show TLE details & history

TLE from 16 hours ago
0 STARLINK-1400
1 45700U 20035AV  24360.89295203  .00000839  00000-0  75182-4 0  9996
2 45700  53.0540 206.4518 0001398  94.6732 265.4417 15.06410903253012
Epoch: 2024-12-25T21:25Z
Definitive object data (Epoch: 2024-12-25T21:25:51.055Z)
Latitude0.00001°
Longitude150.10891°
Altitude548.134 km
Speed7.589 km/s
True Right ascension13h 45m 48s
True Declination0° 00' 00"
Sunlit
Object was in daylight at TLE epoch
Visualization TLE readout
Latitude-6.16072°
Longitude142.5051°
Altitude549.297 km
Speed7.588 km/s
Apparent Right ascension14h 34m 31s
Apparent Declination-65° 41' 23"
Sunlit
Object is in daylight
Visualization observer readout
Local Sidereal Time12:40:51
Azimuth168.121° S
Elevation-17.882°
Doppler factor1
Orbital elements
Apogee altitude548.417 km
Perigee altitude546.481 km
Semi-major axis6,925.586 km
Eccentricity0.0001398
Inclination53.054°
RAAN206.4518°
Arg. of periapsis94.6732°
True anomaly265.42573°
Mean anomaly265.4417°
Eccentric anomaly265.43372°
Mean motion3.76581 °/min
BSTAR0.000075182
Orbital period95.6 mins
Loading maneuver chart data...

STARLINK-1400 Visibility forecast

Observer location: undefined°, undefined

Span
Click to sort rows by Start time (UTC) header in descending order
Start Az.
Max El. time (UTC)
Max El. Az.
Max El.
End time (UTC)
End Az.
6 mins2024-12-26 16:44:11.975Z231.1° WSW2024-12-26 16:46:11.975Z241.077° WSW44.079°2024-12-26 16:50:11.975Z49.629° ENE
4 mins2024-12-26 18:25:11.975Z312.558° NW2024-12-26 18:26:11.975Z332.075° NNW19.377°2024-12-26 18:29:11.975Z24.251° NE
5 mins2024-12-26 21:46:11.975Z345.836° N2024-12-26 21:48:11.975Z24.01° NE19.898°2024-12-26 21:51:11.975Z72.13° E
6 mins2024-12-26 23:25:11.975Z309.6° NW2024-12-26 23:28:11.975Z139.068° SSE44.842°2024-12-26 23:31:11.975Z131.317° SE
|